Find Kosmos-2342

NORAD ID: 24800 Int'l Des: 1997-022 Owner: PVO Country: RU operational
MEOELLIPTICALHEO_ELLIPTICALSEMI_SYNC

实时位置

正在加载3D地球...

关于 Kosmos-2342

正在加载描述...

即将过境

Passes for default location (London). Set your location on the main map for personalized predictions.

高度历史

Loading altitude history...

两行轨道根数

1 24800U 97022A 26105.75076413 -.00001129 00000-0 00000+0 0 9994
2 24800 67.5736 253.4092 6545973 128.9513 310.0483 1.99562783211163
Epoch: Apr 15, 2026 • Age: 14 hours

当前状态

高度 8000.1 km
速度 6.36 km/s
星下点 -31.04°S, 118.25°E
发射日期 May 14, 1997
运行时间 28.9 years
类型 other

技术详情

分类 Payload
质量 1250.00 kg
干质量 1150.00 kg
总质量 1250.00 kg
长度 4.00 m
直径 2.00 m
跨度 5.00 m
形状 Cyl + 2 Pan
制造商 NPOL/KOMET
平台类型 Oko
阶段状态 In Orbit
所有者/国家 PVO/RU

Most Searched